Location: Unspecified
(49.8670°N, 0.0000°E)
Time: 22:42:00
(UTC+00:00)

S-56A Canister/Altair - Pass Details

Date: 23 June 2019
Orbit: 633 x 2499 km, 38.9° (Epoch: 22 October)

Event Time Altitude Azimuth Distance (km) Brightness Sun altitude
Rises 12:59:53 0° 187° (S) 5,626 12.3 61.3°
Reaches altitude 10° 13:07:59 10° 157° (SSE) 4,102 11.6 60.6°
Maximum altitude 13:10:11 11° 145° (SE) 3,872 11.4 60.4°
Drops below altitude 10° 13:12:15 10° 132° (SE) 3,775 11.3 60.2°
Sets 13:18:17 0° 99° (E) 4,241 11.2 59.7°
